Location: Newport
(44.6370°N, 124.0520°W)
Time: 10:02:53
(UTC-07:00)

Vanguard 3 - Visible Passes

Search period start: 17 October 2017 00:00
Search period end: 27 October 2017 00:00
Orbit: 510 x 3263 km, 33.3° (Epoch: 16 October)

Date Brightness Start Highest point End Pass type
(mag) Time Alt. Az. Time Alt. Az. Time Alt. Az.
17 Oct 10.5 04:19:19 12° S 04:25:19 16° SSE 04:31:00 10° ESE visible
17 Oct 9.6 06:28:55 10° SW 06:37:58 29° S 06:43:46 10° ESE visible
18 Oct 10.9 03:10:10 12° SSE 03:10:46 12° SSE 03:14:24 10° SE visible
18 Oct 10.0 05:14:48 12° SSW 05:23:52 26° SSE 05:30:36 10° ESE visible
19 Oct 10.4 04:05:33 19° S 04:09:25 21° SSE 04:16:43 10° ESE visible
19 Oct 9.5 06:11:41 10° SW 06:22:20 34° S 06:28:53 10° ESE visible
20 Oct 10.8 02:56:14 16° SE 02:56:14 16° SE 03:01:29 10° ESE visible
20 Oct 9.9 05:00:50 20° SSW 05:08:03 31° SSE 05:15:45 10° ESE visible
21 Oct 10.3 03:51:26 26° SSE 03:53:25 26° SSE 04:02:01 10° ESE visible
21 Oct 9.5 05:56:02 13° SW 06:06:34 39° S 06:13:52 10° ESE visible
22 Oct 10.7 02:41:58 19° SE 02:41:58 19° SE 02:47:14 10° ESE visible
22 Oct 9.8 04:46:34 27° SSW 04:52:06 36° SSE 05:00:45 10° ESE visible
22 Oct 9.2 06:53:37 10° WSW 07:04:53 41° S 07:11:31 10° ESE visible
23 Oct 10.2 03:37:02 31° SSE 03:37:16 31° SSE 03:47:03 10° ESE visible
23 Oct 9.5 05:41:38 20° SW 05:50:42 43° S 05:58:46 10° ESE visible
24 Oct 10.7 02:27:28 21° ESE 02:27:28 21° ESE 02:32:27 10° ESE visible
24 Oct 9.8 04:32:03 35° SSW 04:36:03 41° SSE 04:45:35 10° ESE visible
24 Oct 9.3 06:36:38 10° WSW 06:49:06 44° S 06:56:24 10° ESE visible
25 Oct 10.1 03:22:25 35° SSE 03:22:25 35° SSE 03:31:52 10° E visible
25 Oct 9.5 05:27:00 27° SW 05:34:44 47° S 05:43:34 10° ESE visible
26 Oct 10.7 02:12:45 21° ESE 02:12:45 21° ESE 02:17:20 10° E visible
26 Oct 9.8 04:17:20 43° S 04:19:51 45° S 04:30:19 10° ESE visible
26 Oct 9.4 06:21:55 15° WSW 06:33:11 46° S 06:41:10 10° ESE visible
